QPF
0.00 0.00 0.00 0.00 0.01 0.02 0.02 0.00 0.00 0.00 0.00 0.00 0.00 0.00 0.00 0.00 0.00 0.00 0.00 0.00 0.00 0.00 0.00 0.00 0.00 0.00 0.00 0.00 0.00 0.00 0.00 0.00 0.00 0.00 0.00 0.00 0.00 0.00 0.00 0.00 0.00 0.01 0.01 0.01 0.00 0.01 0.00 0.00 0.01
0.00 0.00 0.00 0.00 0.00 0.01 0.00 0.00 0.00 0.00 0.00 0.00 0.00 0.00 0.00 0.00 0.00 0.00 0.00 0.00 0.00 0.00 0.00 0.00 0.00 0.00 0.00 0.00 0.00 0.00 0.00 0.00 0.00 0.00 0.00 0.00 0.00 0.00 0.00 0.00 0.00 0.00 0.00 0.01 0.01 0.00 0.00 0.00 0.01
0.00 0.00 0.00 0.00 0.00 0.00 0.00 0.00 0.00 0.00 0.00 0.00 0.00 0.00 0.00 0.00 0.00 0.00 0.00 0.00 0.00 0.00 0.00 0.00 0.00 0.00 0.00 0.00 0.00 0.00 0.00 0.00 0.00 0.00 0.00 0.00 0.00 0.00 0.00 0.00 0.00 0.00 0.00 0.00 0.00 0.01 0.01 0.00 0.00
0.00 0.00 0.00 0.00 0.00 0.00 0.00 0.00 0.00 0.00 0.00 0.00 0.00 0.00 0.00 0.00 0.00 0.00 0.00 0.00 0.00 0.00 0.00 0.00 0.00 0.00 0.00 0.00 0.00 0.00 0.00 0.00 0.00 0.00 0.00 0.00 0.00 0.00 0.00 0.00 0.00 0.00 0.00 0.00 0.00 0.00 0.00 0.00 0.00
0.00 0.00 0.00 0.00 0.00 0.00 0.00 0.00 0.00 0.00 0.00 0.00 0.00 0.00 0.00 0.00 0.00 0.00 0.00 0.00 0.00 0.00 0.00 0.00 0.00 0.00 0.00 0.00 0.00 0.00 0.00 0.00 0.00 0.00 0.00 0.00 0.00 0.00 0.00 0.00 0.00 0.00 0.00 0.00 0.00 0.00 0.00 0.00 0.00
0.00 0.00 0.00 0.00 0.00 0.00 0.00 0.00 0.00 0.00 0.00 0.00 0.00 0.00 0.00 0.00 0.00 0.00 0.00 0.00 0.00 0.00 0.00 0.00 0.00 0.00 0.00 0.00 0.00 0.00 0.00 0.00 0.00 0.00 0.00 0.00 0.00 0.00 0.00 0.00 0.00 0.00 0.00 0.00 0.00 0.00 0.00 0.00 0.01
0.00 0.00 0.00 0.00 0.00 0.00 0.00 0.00 0.00 0.00 0.00 0.00 0.00 0.00 0.00 0.00 0.00 0.00 0.00 0.00 0.00 0.00 0.00 0.00 0.00 0.00 0.00 0.00 0.00 0.00 0.00 0.00 0.00 0.00 0.00 0.00 0.00 0.00 0.00 0.00 0.00 0.00 0.00 0.00 0.00 0.00 0.00 0.00 0.00
0.00 0.00 0.00 0.00 0.00 0.00 0.00 0.00 0.00 0.00 0.00 0.00 0.00 0.00 0.00 0.00 0.00 0.00 0.00 0.00 0.00 0.00 0.00 0.00 0.00 0.00 0.00 0.00 0.00 0.00 0.00 0.00 0.00 0.00 0.00 0.00 0.00 0.00 0.00 0.00 0.00 0.00 0.00 0.00 0.00 0.00 0.00 0.00 0.00
0.00 0.00 0.00 0.00 0.00 0.00 0.00 0.00 0.00 0.00 0.00 0.00 0.00 0.00 0.00 0.00 0.00 0.00 0.00 0.00 0.00 0.00 0.00 0.00 0.00 0.00 0.00 0.00 0.00 0.00 0.00 0.00 0.00 0.00 0.00 0.00 0.00 0.00 0.00 0.00 0.00 0.00 0.00 0.00 0.00 0.00 0.00 0.00 0.00
0.00 0.00 0.00 0.00 0.00 0.00 0.00 0.00 0.00 0.00 0.00 0.00 0.00 0.00 0.00 0.00 0.00 0.00 0.00 0.00 0.00 0.00 0.00 0.00 0.00 0.00 0.00 0.00 0.00 0.00 0.00 0.00 0.00 0.00 0.00 0.00 0.00 0.00 0.00 0.00 0.00 0.00 0.00 0.00 0.00 0.00 0.00 0.00 0.00
0.00 0.00 0.00 0.00 0.00 0.00 0.00 0.00 0.00 0.00 0.00 0.00 0.00 0.00 0.00 0.00 0.00 0.00 0.00 0.00 0.00 0.00 0.00 0.00 0.00 0.00 0.00 0.00 0.00 0.00 0.00 0.00 0.00 0.00 0.00 0.00 0.00 0.00 0.00 0.00 0.00 0.00 0.00 0.00 0.00 0.00 0.00 0.00 0.00
0.00 0.00 0.00 0.00 0.00 0.00 0.00 0.00 0.00 0.00 0.00 0.00 0.00 0.00 0.00 0.00 0.00 0.00 0.00 0.00 0.00 0.00 0.00 0.00 0.00 0.00 0.00 0.00 0.00 0.00 0.00 0.00 0.00 0.00 0.00 0.00 0.00 0.00 0.00 0.00 0.00 0.00 0.00 0.00 0.00 0.00 0.00 0.00 0.00
0.00 0.00 0.00 0.00 0.00 0.00 0.00 0.00 0.00 0.00 0.00 0.00 0.00 0.00 0.00 0.00 0.00 0.00 0.00 0.00 0.00 0.00 0.00 0.00 0.00 0.00 0.00 0.00 0.00 0.00 0.00 0.00 0.00 0.00 0.00 0.00 0.00 0.00 0.00 0.00 0.00 0.00 0.00 0.00 0.00 0.00 0.00 0.00 0.00
0.00 0.00 0.00 0.00 0.00 0.00 0.00 0.00 0.00 0.00 0.00 0.00 0.00 0.00 0.00 0.00 0.00 0.00 0.00 0.00 0.00 0.00 0.00 0.00 0.00 0.00 0.00 0.00 0.00 0.00 0.00 0.00 0.00 0.00 0.00 0.00 0.00 0.00 0.00 0.00 0.00 0.00 0.00 0.00 0.00 0.00 0.00 0.00 0.00
0.00 0.00 0.00 0.00 0.00 0.00 0.00 0.00 0.00 0.00 0.00 0.00 0.00 0.00 0.00 0.00 0.00 0.00 0.00 0.00 0.00 0.00 0.00 0.00 0.00 0.00 0.00 0.00 0.00 0.00 0.00 0.00 0.00 0.00 0.00 0.00 0.00 0.00 0.00 0.00 0.00 0.00 0.00 0.00 0.00 0.00 0.00 0.00 0.00
0.00 0.00 0.00 0.00 0.00 0.00 0.00 0.00 0.00 0.00 0.00 0.00 0.00 0.00 0.00 0.00 0.00 0.00 0.00 0.00 0.00 0.00 0.00 0.00 0.00 0.00 0.00 0.00 0.00 0.00 0.00 0.00 0.00 0.00 0.00 0.00 0.00 0.00 0.00 0.00 0.00 0.00 0.00 0.00 0.00 0.00 0.00 0.00 0.00
0.00 0.00 0.00 0.00 0.00 0.00 0.00 0.00 0.00 0.00 0.00 0.00 0.00 0.00 0.00 0.00 0.00 0.00 0.00 0.00 0.00 0.00 0.00 0.00 0.00 0.00 0.00 0.00 0.00 0.00 0.00 0.00 0.00 0.00 0.00 0.00 0.00 0.00 0.00 0.00 0.00 0.00 0.00 0.00 0.00 0.00 0.00 0.00 0.00
0.00 0.00 0.00 0.00 0.00 0.00 0.00 0.00 0.00 0.00 0.00 0.00 0.00 0.00 0.00 0.00 0.00 0.00 0.00 0.00 0.00 0.00 0.00 0.00 0.00 0.00 0.00 0.00 0.00 0.00 0.00 0.00 0.00 0.00 0.00 0.00 0.00 0.00 0.00 0.00 0.00 0.00 0.00 0.00 0.00 0.00 0.00 0.00 0.00
0.00 0.00 0.00 0.00 0.00 0.00 0.00 0.00 0.00 0.00 0.00 0.00 0.00 0.00 0.00 0.00 0.00 0.00 0.00 0.00 0.00 0.00 0.00 0.00 0.00 0.00 0.00 0.00 0.00 0.00 0.00 0.00 0.00 0.00 0.00 0.00 0.00 0.00 0.00 0.00 0.00 0.00 0.00 0.00 0.00 0.00 0.00 0.00 0.00
0.00 0.00 0.00 0.00 0.00 0.00 0.00 0.00 0.00 0.00 0.00 0.00 0.00 0.00 0.00 0.00 0.00 0.00 0.00 0.00 0.00 0.00 0.00 0.00 0.00 0.00 0.00 0.00 0.00 0.00 0.00 0.00 0.00 0.00 0.00 0.00 0.00 0.00 0.00 0.00 0.00 0.00 0.00 0.00 0.00 0.00 0.00 0.00 0.00
0.00 0.00 0.00 0.00 0.00 0.00 0.00 0.00 0.00 0.00 0.00 0.00 0.00 0.00 0.00 0.00 0.00 0.00 0.00 0.00 0.00 0.00 0.00 0.00 0.00 0.00 0.00 0.00 0.00 0.00 0.00 0.00 0.00 0.00 0.00 0.00 0.00 0.00 0.00 0.00 0.00 0.00 0.00 0.00 0.00 0.00 0.00 0.00 0.00
0.00 0.00 0.00 0.00 0.00 0.00 0.00 0.00 0.00 0.00 0.00 0.00 0.00 0.00 0.00 0.00 0.00 0.00 0.00 0.00 0.00 0.00 0.00 0.00 0.00 0.00 0.00 0.00 0.00 0.00 0.00 0.00 0.00 0.00 0.00 0.00 0.00 0.00 0.00 0.00 0.00 0.00 0.00 0.00 0.00 0.00 0.00 0.00 0.00
0.00 0.00 0.00 0.00 0.00 0.00 0.00 0.00 0.00 0.00 0.00 0.00 0.00 0.00 0.00 0.00 0.00 0.00 0.00 0.00 0.00 0.00 0.00 0.00 0.00 0.00 0.00 0.00 0.00 0.00 0.00 0.00 0.00 0.00 0.00 0.00 0.00 0.00 0.00 0.00 0.00 0.00 0.00 0.00 0.00 0.00 0.00 0.00 0.00
0.00 0.00 0.00 0.00 0.00 0.00 0.00 0.00 0.00 0.00 0.00 0.00 0.00 0.00 0.00 0.00 0.00 0.00 0.00 0.00 0.00 0.00 0.00 0.00 0.00 0.00 0.00 0.00 0.00 0.00 0.00 0.00 0.00 0.00 0.00 0.00 0.00 0.00 0.00 0.00 0.00 0.00 0.00 0.00 0.00 0.00 0.00 0.00 0.00
0.00 0.00 0.00 0.00 0.00 0.00 0.00 0.00 0.00 0.00 0.00 0.00 0.00 0.00 0.00 0.00 0.00 0.00 0.00 0.00 0.00 0.00 0.00 0.00 0.00 0.00 0.00 0.00 0.00 0.00 0.00 0.00 0.00 0.00 0.00 0.00 0.00 0.00 0.00 0.00 0.00 0.00 0.00 0.00 0.00 0.00 0.00 0.00 0.00
0.00 0.00 0.00 0.00 0.00 0.00 0.00 0.00 0.00 0.00 0.00 0.00 0.00 0.00 0.00 0.00 0.00 0.00 0.00 0.00 0.00 0.00 0.00 0.00 0.00 0.00 0.00 0.00 0.00 0.00 0.00 0.00 0.00 0.00 0.00 0.00 0.00 0.00 0.00 0.00 0.00 0.00 0.00 0.00 0.00 0.00 0.00 0.00 0.00
0.00 0.00 0.00 0.00 0.00 0.00 0.00 0.00 0.00 0.00 0.00 0.00 0.00 0.00 0.00 0.00 0.00 0.00 0.00 0.00 0.00 0.00 0.00 0.00 0.00 0.00 0.00 0.00 0.00 0.00 0.00 0.00 0.00 0.00 0.00 0.00 0.00 0.00 0.00 0.00 0.00 0.00 0.00 0.00 0.00 0.00 0.00 0.00 0.00
0.00 0.00 0.00 0.00 0.00 0.00 0.00 0.00 0.00 0.00 0.00 0.00 0.00 0.00 0.00 0.00 0.00 0.00 0.00 0.00 0.00 0.00 0.00 0.00 0.00 0.00 0.00 0.00 0.00 0.00 0.00 0.00 0.00 0.00 0.00 0.00 0.00 0.00 0.00 0.00 0.00 0.00 0.00 0.00 0.00 0.00 0.00 0.00 0.00
0.00 0.00 0.00 0.00 0.00 0.00 0.00 0.00 0.00 0.00 0.00 0.00 0.00 0.00 0.00 0.00 0.00 0.00 0.00 0.00 0.00 0.00 0.00 0.00 0.00 0.00 0.00 0.00 0.00 0.00 0.00 0.00 0.00 0.00 0.00 0.00 0.00 0.00 0.00 0.00 0.00 0.00 0.00 0.00 0.00 0.00 0.00 0.00 0.00
0.00 0.00 0.00 0.00 0.00 0.00 0.00 0.00 0.00 0.00 0.00 0.00 0.00 0.00 0.00 0.00 0.00 0.00 0.00 0.00 0.00 0.00 0.00 0.00 0.00 0.00 0.00 0.00 0.00 0.00 0.00 0.00 0.00 0.00 0.00 0.00 0.00 0.00 0.00 0.00 0.00 0.00 0.00 0.00 0.00 0.00 0.00 0.00 0.00
MSLP
1011.82 1011.00 1010.79 1010.75 1011.27 1010.74 1010.43 1010.15 1007.93 1007.62 1007.14 1007.43 1007.45 1007.72 1008.08 1008.21 1009.15 1011.16 1011.54 1011.35 1011.74 1012.25 1013.10 1013.65 1013.91 1014.06 1014.30 1014.47 1014.70 1014.90 1015.13 1015.33 1015.47 1015.61 1015.71 1015.80 1015.84 1015.84 1015.90 1015.99 1015.96 1015.94 1015.85 1015.80 1015.76 1015.75 1015.79 1015.78 1015.67
1011.81 1011.06 1010.99 1010.62 1010.48 1010.19 1010.10 1008.94 1007.70 1007.38 1007.44 1007.54 1007.62 1007.66 1007.73 1008.49 1009.08 1010.67 1011.21 1011.07 1011.38 1011.88 1012.69 1013.37 1013.88 1014.11 1014.34 1014.54 1014.72 1015.01 1015.21 1015.47 1015.67 1015.77 1015.89 1016.00 1016.09 1016.14 1016.22 1016.22 1016.23 1016.31 1016.32 1016.12 1016.05 1016.02 1015.99 1016.00 1015.92
1011.85 1011.17 1011.07 1010.40 1009.57 1009.62 1009.99 1008.12 1007.35 1007.22 1007.49 1007.57 1007.42 1007.58 1007.87 1008.57 1009.01 1010.06 1010.26 1010.85 1011.07 1011.48 1011.94 1012.99 1013.70 1014.09 1014.42 1014.65 1014.81 1015.07 1015.25 1015.57 1015.79 1015.93 1016.03 1016.14 1016.28 1016.43 1016.47 1016.44 1016.48 1016.64 1016.55 1016.52 1016.43 1016.34 1016.29 1016.23 1016.19
1011.32 1011.11 1010.86 1010.01 1009.10 1008.33 1009.06 1007.11 1007.02 1007.00 1007.28 1007.62 1007.63 1007.58 1008.00 1008.40 1008.85 1009.22 1010.14 1010.68 1010.99 1011.37 1012.20 1013.11 1013.62 1014.03 1014.37 1014.77 1014.90 1015.16 1015.32 1015.61 1015.88 1016.01 1016.18 1016.26 1016.43 1016.57 1016.75 1016.81 1016.83 1016.86 1016.79 1016.79 1016.69 1016.64 1016.55 1016.45 1016.35
1011.26 1010.98 1010.41 1009.48 1008.50 1007.34 1006.61 1006.54 1006.76 1006.98 1006.88 1007.12 1007.54 1007.82 1008.20 1008.70 1008.80 1009.39 1010.16 1010.49 1010.79 1011.32 1012.26 1013.04 1013.52 1014.00 1014.26 1014.66 1015.00 1015.18 1015.46 1015.62 1015.86 1016.02 1016.17 1016.35 1016.56 1016.70 1016.86 1017.06 1017.16 1017.15 1017.05 1016.99 1016.99 1016.89 1016.78 1016.60 1016.44
1011.22 1010.49 1010.19 1009.40 1008.34 1007.23 1006.49 1006.05 1006.26 1006.76 1006.77 1006.70 1007.18 1007.59 1008.14 1008.58 1008.88 1009.30 1009.93 1010.23 1010.51 1010.98 1011.81 1012.82 1013.55 1014.03 1014.30 1014.58 1014.89 1015.14 1015.44 1015.68 1015.92 1016.06 1016.21 1016.37 1016.64 1016.87 1017.00 1017.14 1017.32 1017.33 1017.41 1017.35 1017.31 1017.24 1017.13 1016.94 1016.77
1011.22 1010.88 1010.38 1009.73 1008.88 1007.78 1006.99 1006.50 1006.70 1006.90 1006.87 1006.70 1006.78 1007.48 1008.09 1008.93 1009.03 1009.11 1009.76 1010.03 1010.24 1010.53 1011.44 1012.39 1013.30 1014.02 1014.43 1014.64 1014.85 1015.04 1015.36 1015.54 1015.88 1016.07 1016.24 1016.40 1016.66 1016.96 1017.16 1017.23 1017.43 1017.49 1017.56 1017.64 1017.67 1017.58 1017.45 1017.31 1017.29
1011.36 1010.99 1010.42 1009.81 1009.02 1007.98 1007.14 1006.85 1007.07 1007.23 1007.28 1006.88 1007.00 1007.52 1008.19 1008.62 1009.06 1009.17 1009.49 1009.76 1010.10 1010.49 1011.09 1011.75 1012.48 1013.51 1014.24 1014.58 1014.66 1014.93 1015.20 1015.57 1015.79 1016.06 1016.22 1016.51 1016.71 1016.97 1017.25 1017.33 1017.54 1017.62 1017.74 1017.76 1017.85 1017.85 1017.73 1017.60 1017.51
1011.28 1011.26 1010.43 1009.81 1009.08 1008.43 1007.73 1007.62 1007.40 1007.11 1007.34 1007.47 1007.23 1007.32 1007.92 1008.50 1008.96 1009.17 1009.38 1009.68 1009.87 1010.25 1010.69 1011.18 1011.84 1012.78 1013.34 1014.07 1014.64 1014.97 1015.29 1015.60 1015.85 1016.08 1016.31 1016.45 1016.69 1016.91 1017.38 1017.47 1017.70 1017.77 1017.83 1017.91 1017.89 1017.89 1017.88 1017.78 1017.60
1011.24 1010.90 1010.12 1009.36 1009.15 1009.00 1008.71 1008.46 1008.17 1007.94 1007.78 1007.64 1007.27 1006.91 1007.20 1007.80 1008.56 1009.00 1009.28 1009.57 1009.82 1010.13 1010.44 1010.78 1011.40 1012.05 1012.56 1013.23 1014.24 1015.03 1015.40 1015.61 1015.88 1016.04 1016.31 1016.27 1016.33 1016.55 1017.12 1017.60 1017.79 1017.86 1017.83 1017.84 1017.79 1017.76 1017.71 1017.65 1017.80
1010.67 1010.53 1009.95 1009.56 1009.36 1009.28 1009.24 1009.05 1008.68 1008.41 1008.10 1007.81 1007.72 1007.37 1007.30 1007.84 1008.42 1008.73 1008.87 1009.07 1009.33 1009.62 1010.04 1010.39 1010.69 1011.04 1011.60 1012.27 1013.51 1014.21 1014.75 1015.26 1015.48 1015.55 1015.84 1015.90 1016.18 1016.72 1017.08 1017.57 1017.70 1017.81 1017.71 1017.91 1017.72 1017.73 1017.84 1017.71 1017.71
1010.70 1010.21 1009.83 1009.36 1009.36 1009.48 1009.49 1009.32 1009.08 1008.83 1008.08 1007.44 1007.41 1007.23 1007.33 1007.67 1008.14 1008.22 1008.35 1008.55 1008.59 1008.78 1009.23 1009.63 1010.15 1010.35 1010.88 1011.43 1012.58 1013.13 1013.75 1014.27 1014.63 1014.81 1015.08 1015.44 1015.98 1016.45 1016.73 1016.99 1017.24 1017.40 1017.39 1017.50 1017.61 1017.81 1017.87 1017.78 1017.63
1010.20 1010.03 1009.70 1009.30 1009.39 1009.43 1009.35 1009.20 1009.19 1008.34 1007.86 1007.47 1007.29 1007.10 1007.15 1007.36 1007.56 1007.59 1007.65 1007.78 1007.80 1008.03 1008.56 1009.05 1009.73 1010.05 1010.39 1011.14 1011.70 1012.27 1012.86 1013.34 1013.83 1014.32 1014.62 1014.90 1015.54 1016.10 1016.09 1016.44 1016.77 1017.05 1017.10 1017.34 1017.61 1017.73 1017.76 1017.78 1017.78
1010.27 1010.22 1009.96 1009.53 1009.10 1009.07 1008.97 1008.74 1008.76 1007.66 1007.26 1007.11 1006.91 1006.90 1006.97 1007.03 1007.16 1007.29 1007.29 1007.53 1007.61 1007.71 1007.98 1008.48 1009.15 1009.94 1010.22 1010.67 1011.31 1011.85 1012.31 1012.78 1013.32 1013.83 1014.20 1014.48 1014.96 1015.32 1015.71 1016.14 1016.47 1016.71 1016.84 1017.02 1017.33 1017.58 1017.69 1017.81 1017.96
1010.65 1010.43 1009.70 1008.68 1008.34 1008.57 1008.81 1008.60 1008.17 1007.23 1006.73 1006.66 1006.74 1006.58 1006.42 1006.40 1006.44 1006.71 1006.93 1007.23 1007.20 1007.21 1007.28 1007.63 1008.31 1009.00 1009.81 1010.19 1010.77 1011.58 1012.11 1012.56 1013.14 1013.45 1013.69 1014.12 1014.50 1014.84 1015.27 1015.80 1016.30 1016.40 1016.54 1016.76 1017.01 1017.28 1017.52 1017.81 1017.78
1010.50 1010.22 1009.41 1008.00 1008.14 1008.72 1009.07 1008.16 1008.11 1007.15 1007.07 1007.15 1006.96 1007.04 1006.69 1006.54 1006.61 1006.35 1006.06 1006.10 1006.24 1006.64 1006.94 1007.01 1007.47 1008.28 1009.16 1009.91 1010.59 1011.22 1011.74 1012.36 1012.90 1013.31 1013.57 1013.89 1014.24 1014.44 1014.89 1015.55 1015.93 1016.02 1016.35 1016.66 1017.10 1017.39 1017.64 1017.76 1017.92
1010.04 1009.84 1009.14 1008.25 1008.14 1008.66 1008.89 1008.08 1007.83 1007.36 1007.27 1007.18 1007.07 1007.13 1007.15 1006.93 1006.73 1006.52 1006.79 1006.04 1005.52 1005.76 1006.30 1006.71 1006.99 1007.64 1008.42 1009.14 1009.85 1010.66 1011.32 1012.04 1012.51 1012.98 1013.30 1013.55 1013.88 1014.10 1014.50 1014.99 1015.31 1015.58 1016.14 1016.66 1017.02 1017.29 1017.55 1017.83 1017.94
1010.88 1010.42 1009.78 1009.42 1008.84 1008.72 1008.68 1008.12 1007.46 1007.14 1007.13 1007.02 1006.94 1007.03 1007.27 1007.40 1008.52 1008.34 1008.50 1008.33 1007.34 1006.77 1005.89 1006.13 1006.55 1007.23 1007.85 1008.41 1009.10 1010.04 1010.86 1011.44 1011.83 1012.41 1012.83 1013.07 1013.46 1013.79 1014.16 1014.56 1014.92 1015.29 1016.09 1016.50 1016.77 1017.06 1017.32 1017.53 1017.74
1011.63 1011.23 1010.49 1009.77 1009.28 1008.91 1008.84 1008.42 1007.43 1006.81 1006.89 1006.93 1007.38 1008.04 1008.95 1009.10 1009.53 1009.36 1009.53 1009.31 1008.84 1008.83 1008.66 1008.65 1008.51 1007.58 1007.71 1008.25 1008.76 1009.73 1010.65 1011.27 1011.73 1012.22 1012.42 1012.80 1013.16 1013.46 1013.88 1014.26 1014.72 1015.02 1015.66 1016.05 1016.39 1016.75 1017.23 1017.51 1017.61
1011.92 1011.44 1010.72 1009.85 1009.63 1009.82 1009.29 1008.77 1007.65 1006.39 1007.19 1008.15 1008.99 1009.64 1010.12 1010.28 1010.47 1010.71 1010.72 1010.69 1010.55 1010.61 1010.41 1009.88 1009.62 1009.44 1009.26 1008.39 1008.00 1008.46 1009.19 1010.08 1010.86 1011.59 1011.97 1012.21 1012.51 1012.78 1013.25 1013.85 1014.24 1014.70 1015.29 1015.78 1016.07 1016.43 1017.01 1017.40 1017.46
1011.86 1011.58 1011.13 1011.11 1010.66 1010.27 1009.44 1008.36 1007.93 1008.41 1008.36 1009.17 1010.49 1011.35 1011.69 1012.07 1012.05 1012.03 1011.96 1011.97 1011.80 1011.69 1011.62 1011.48 1010.99 1010.39 1010.12 1009.66 1008.90 1008.11 1008.66 1009.35 1010.04 1010.69 1011.12 1011.45 1011.91 1012.40 1012.69 1013.16 1013.70 1014.15 1014.66 1015.20 1015.54 1015.95 1016.59 1017.28 1017.39
1012.11 1012.00 1012.17 1011.92 1011.78 1010.83 1010.50 1009.52 1008.95 1009.37 1009.63 1010.70 1011.69 1012.17 1012.74 1013.17 1013.31 1013.32 1013.25 1013.15 1013.01 1012.63 1012.53 1012.32 1011.96 1011.39 1010.65 1010.39 1010.26 1009.88 1008.48 1008.81 1008.97 1009.59 1010.33 1010.86 1011.17 1011.82 1012.34 1012.69 1013.08 1013.59 1014.08 1014.62 1015.01 1015.52 1016.03 1016.64 1017.36
1012.86 1012.78 1012.71 1012.29 1011.96 1011.65 1010.50 1010.65 1008.42 1008.89 1010.49 1011.66 1012.42 1012.91 1013.34 1013.72 1014.07 1014.25 1014.23 1014.10 1013.80 1013.49 1013.14 1012.85 1012.43 1011.84 1011.41 1010.72 1010.04 1010.02 1009.84 1008.73 1008.44 1008.72 1009.49 1010.18 1010.72 1011.00 1011.55 1012.08 1012.58 1012.97 1013.45 1013.93 1014.43 1015.01 1015.52 1016.02 1016.74
1013.26 1013.04 1012.51 1011.41 1011.78 1011.87 1010.24 1010.24 1009.72 1009.88 1011.48 1012.59 1013.18 1013.58 1014.00 1014.12 1014.47 1014.59 1014.71 1014.45 1014.16 1013.76 1013.33 1013.01 1012.64 1012.27 1011.60 1010.98 1010.43 1009.88 1009.41 1009.08 1008.47 1008.46 1008.84 1009.43 1010.07 1010.70 1010.98 1011.43 1011.95 1012.23 1012.73 1013.20 1013.73 1014.32 1014.94 1015.50 1015.98
1013.88 1013.97 1012.98 1012.05 1012.23 1011.61 1010.47 1010.86 1010.52 1011.66 1012.76 1013.70 1014.20 1014.44 1014.51 1014.51 1014.50 1014.64 1014.63 1014.40 1014.10 1013.86 1013.52 1012.91 1012.64 1012.35 1011.74 1010.99 1010.30 1009.71 1009.08 1008.56 1008.13 1007.76 1007.89 1008.61 1009.44 1009.88 1010.33 1010.79 1011.28 1011.67 1011.92 1012.47 1013.10 1013.74 1014.35 1014.94 1015.55
1014.81 1015.11 1015.25 1014.63 1013.63 1012.88 1011.47 1011.39 1011.54 1012.09 1013.32 1014.29 1014.88 1015.00 1014.95 1014.78 1014.62 1014.86 1014.83 1014.66 1014.21 1013.87 1013.46 1013.10 1012.51 1012.03 1011.68 1011.05 1010.11 1009.40 1008.85 1008.15 1007.39 1007.13 1007.13 1007.32 1008.03 1008.86 1009.55 1010.01 1010.40 1010.97 1011.49 1011.89 1012.43 1013.19 1013.83 1014.42 1015.03
1015.35 1015.83 1016.90 1016.70 1016.04 1015.03 1013.02 1011.46 1012.08 1011.98 1013.49 1014.33 1014.65 1014.56 1014.62 1014.58 1014.44 1014.61 1014.65 1014.45 1014.12 1013.91 1013.32 1012.80 1012.21 1011.89 1011.62 1011.00 1009.93 1009.28 1008.82 1008.22 1007.36 1006.57 1006.28 1006.33 1006.77 1007.61 1008.44 1009.16 1009.77 1010.19 1010.82 1011.33 1011.83 1012.55 1013.30 1013.88 1014.50
1016.62 1017.07 1017.47 1017.84 1017.36 1015.86 1013.69 1012.90 1012.77 1013.10 1013.33 1013.86 1014.38 1014.51 1014.21 1013.73 1013.79 1013.78 1013.69 1013.67 1013.57 1013.37 1012.95 1012.41 1012.06 1011.60 1011.05 1010.46 1009.75 1009.14 1008.82 1008.21 1007.22 1006.22 1005.69 1005.57 1005.84 1006.54 1007.29 1008.05 1008.83 1009.58 1010.17 1010.76 1011.37 1012.08 1012.67 1013.38 1013.99
1017.35 1017.63 1018.23 1018.67 1019.22 1018.37 1016.93 1014.18 1013.83 1014.83 1015.20 1015.08 1014.80 1014.57 1014.88 1014.95 1014.71 1014.56 1014.32 1014.00 1013.70 1013.38 1012.65 1012.25 1012.03 1011.46 1010.78 1010.23 1009.80 1009.54 1009.03 1008.19 1007.17 1006.09 1005.40 1004.89 1005.24 1005.73 1006.27 1007.02 1007.89 1008.63 1009.41 1010.04 1010.73 1011.40 1012.07 1012.84 1013.55
1018.72 1018.86 1019.23 1019.76 1019.83 1019.97 1020.12 1015.02 1015.48 1015.96 1015.83 1015.71 1015.41 1014.98 1014.72 1014.64 1014.50 1014.62 1014.29 1013.77 1013.35 1012.88 1012.74 1012.21 1011.64 1011.10 1010.40 1009.94 1009.78 1009.48 1008.78 1008.14 1007.21 1006.05 1005.10 1004.74 1004.65 1004.90 1005.19 1005.95 1006.97 1007.73 1008.55 1009.27 1009.88 1010.54 1011.08 1012.04 1012.88
Thickness
5805 5813 5817 5806 5769 5772 5762 5756 5809 5798 5805 5818 5823 5812 5803 5812 5795 5768 5813 5819 5817 5813 5805 5800 5798 5796 5792 5789 5786 5783 5779 5775 5772 5770 5768 5766 5764 5762 5760 5758 5756 5755 5755 5754 5754 5753 5751 5750 5750
5806 5813 5807 5792 5766 5753 5756 5788 5792 5804 5812 5820 5819 5817 5811 5798 5819 5806 5807 5821 5819 5815 5808 5802 5798 5795 5792 5790 5787 5783 5780 5776 5772 5770 5767 5765 5763 5761 5759 5757 5755 5753 5752 5752 5752 5751 5750 5749 5748
5805 5811 5786 5776 5777 5760 5752 5784 5803 5813 5817 5814 5812 5821 5814 5803 5820 5814 5824 5823 5820 5818 5814 5805 5799 5795 5792 5790 5787 5783 5781 5776 5772 5770 5767 5765 5762 5759 5757 5755 5754 5752 5752 5750 5750 5749 5748 5748 5746
5800 5797 5792 5769 5769 5789 5761 5806 5814 5811 5814 5817 5814 5803 5820 5828 5822 5830 5827 5824 5820 5818 5811 5803 5799 5795 5792 5788 5786 5782 5780 5776 5772 5770 5767 5765 5762 5759 5756 5754 5752 5750 5750 5749 5749 5748 5747 5746 5745
5800 5789 5768 5769 5779 5804 5819 5818 5816 5805 5811 5811 5812 5797 5805 5820 5832 5830 5824 5824 5819 5817 5808 5802 5798 5794 5792 5788 5784 5782 5779 5776 5773 5770 5768 5764 5761 5758 5756 5752 5750 5748 5747 5747 5746 5746 5746 5745 5745
5776 5790 5762 5758 5776 5800 5813 5824 5818 5808 5812 5815 5806 5803 5805 5824 5824 5826 5825 5822 5822 5817 5810 5801 5795 5791 5789 5786 5784 5781 5778 5775 5772 5770 5767 5764 5760 5757 5754 5752 5749 5747 5745 5744 5743 5743 5743 5743 5742
5773 5769 5759 5765 5771 5785 5800 5820 5806 5802 5803 5806 5820 5796 5805 5812 5822 5826 5822 5822 5821 5818 5810 5802 5794 5788 5785 5783 5781 5780 5777 5775 5771 5768 5766 5763 5759 5756 5752 5750 5748 5746 5744 5742 5740 5740 5740 5740 5738
5777 5775 5765 5768 5766 5775 5807 5812 5814 5804 5796 5823 5821 5790 5785 5813 5819 5822 5820 5818 5817 5815 5810 5804 5798 5789 5784 5781 5780 5778 5775 5773 5770 5767 5764 5761 5758 5754 5751 5748 5745 5743 5742 5740 5738 5737 5737 5737 5736
5788 5754 5748 5761 5770 5779 5803 5793 5809 5820 5804 5806 5811 5808 5812 5816 5818 5813 5811 5811 5812 5811 5809 5805 5802 5791 5787 5781 5776 5773 5770 5768 5766 5764 5761 5760 5757 5754 5749 5746 5743 5741 5739 5738 5736 5735 5734 5733 5733
5767 5753 5762 5785 5785 5779 5788 5789 5793 5793 5792 5792 5801 5817 5821 5817 5812 5804 5802 5800 5803 5803 5804 5804 5799 5794 5788 5782 5775 5769 5765 5764 5762 5760 5758 5759 5757 5755 5749 5744 5741 5739 5738 5737 5736 5734 5733 5732 5731
5773 5756 5776 5780 5786 5787 5780 5782 5793 5784 5778 5790 5788 5801 5812 5812 5806 5803 5804 5804 5803 5805 5803 5800 5798 5796 5792 5786 5778 5771 5766 5762 5760 5760 5758 5758 5755 5751 5747 5743 5741 5739 5738 5736 5735 5733 5731 5731 5729
5757 5774 5777 5781 5785 5780 5773 5784 5778 5782 5787 5802 5804 5809 5810 5803 5803 5801 5800 5802 5804 5806 5805 5802 5798 5797 5794 5788 5782 5774 5770 5764 5762 5761 5757 5756 5752 5748 5747 5744 5741 5739 5738 5736 5734 5732 5729 5728 5727
5764 5770 5779 5783 5780 5778 5782 5775 5774 5784 5795 5804 5806 5806 5804 5802 5803 5806 5808 5808 5806 5803 5802 5800 5796 5793 5792 5784 5781 5776 5771 5767 5762 5759 5756 5754 5750 5746 5745 5743 5740 5737 5735 5733 5730 5728 5727 5725 5723
5769 5767 5768 5774 5776 5777 5774 5776 5777 5789 5801 5800 5800 5799 5801 5801 5800 5800 5802 5800 5799 5799 5798 5798 5793 5786 5785 5781 5777 5774 5769 5766 5761 5757 5753 5750 5747 5745 5742 5739 5737 5734 5732 5730 5727 5724 5722 5720 5718
5764 5751 5762 5773 5779 5773 5774 5765 5766 5790 5800 5796 5795 5796 5798 5800 5802 5797 5798 5795 5796 5798 5797 5795 5793 5791 5779 5777 5775 5768 5762 5759 5756 5754 5750 5746 5744 5741 5738 5734 5731 5730 5727 5725 5722 5720 5717 5714 5713
5752 5752 5739 5775 5776 5766 5762 5745 5770 5788 5785 5780 5784 5784 5785 5788 5791 5798 5801 5799 5798 5794 5791 5790 5789 5787 5780 5768 5764 5761 5758 5752 5749 5746 5744 5740 5737 5736 5734 5729 5726 5724 5721 5719 5716 5713 5710 5708 5706
5750 5732 5744 5757 5771 5761 5755 5749 5770 5780 5775 5773 5774 5776 5776 5776 5782 5787 5781 5789 5796 5798 5791 5787 5781 5777 5776 5770 5760 5755 5752 5747 5742 5738 5737 5735 5731 5729 5728 5724 5721 5719 5714 5711 5709 5706 5703 5700 5699
5724 5725 5736 5730 5754 5752 5744 5748 5769 5773 5771 5769 5771 5771 5769 5766 5752 5760 5762 5766 5775 5781 5787 5783 5777 5768 5766 5766 5758 5749 5745 5743 5739 5733 5731 5729 5727 5724 5721 5718 5716 5713 5707 5704 5702 5699 5697 5695 5693
5728 5723 5723 5739 5753 5744 5738 5742 5758 5770 5768 5764 5762 5755 5744 5745 5746 5750 5748 5750 5752 5751 5752 5752 5750 5758 5751 5748 5748 5738 5729 5729 5728 5725 5723 5722 5720 5716 5712 5711 5708 5706 5701 5698 5696 5693 5690 5687 5687
5722 5718 5722 5741 5746 5734 5730 5734 5750 5769 5756 5749 5741 5735 5730 5729 5729 5728 5729 5728 5729 5727 5727 5731 5733 5731 5731 5734 5739 5740 5731 5724 5722 5718 5716 5716 5714 5710 5706 5703 5701 5699 5694 5691 5689 5687 5682 5680 5678
5721 5715 5719 5712 5726 5730 5726 5731 5740 5736 5738 5732 5720 5714 5710 5705 5705 5707 5707 5706 5707 5705 5704 5705 5709 5714 5714 5715 5719 5726 5725 5718 5712 5712 5709 5707 5704 5701 5698 5696 5695 5693 5689 5685 5683 5680 5675 5669 5671
5702 5718 5710 5707 5697 5689 5717 5675 5715 5715 5710 5703 5695 5689 5686 5683 5683 5683 5683 5683 5682 5684 5683 5683 5686 5690 5695 5696 5694 5697 5709 5708 5708 5705 5702 5697 5697 5694 5689 5688 5687 5685 5682 5679 5676 5673 5667 5664 5660
5699 5708 5701 5700 5692 5685 5701 5674 5708 5711 5687 5679 5675 5671 5666 5661 5658 5655 5656 5658 5660 5661 5662 5660 5662 5667 5669 5675 5679 5679 5682 5695 5699 5697 5692 5689 5686 5686 5683 5679 5679 5677 5675 5673 5669 5665 5661 5657 5654
5704 5697 5699 5703 5690 5665 5692 5682 5690 5690 5670 5658 5655 5651 5648 5645 5639 5636 5635 5636 5636 5636 5637 5639 5640 5643 5647 5651 5656 5661 5665 5671 5679 5682 5682 5680 5676 5673 5674 5672 5670 5670 5668 5666 5663 5659 5655 5650 5648
5685 5671 5659 5674 5657 5659 5692 5671 5682 5667 5654 5640 5635 5632 5629 5626 5620 5619 5618 5615 5614 5613 5610 5612 5614 5616 5624 5629 5636 5642 5649 5653 5660 5669 5671 5668 5666 5666 5665 5664 5660 5659 5659 5658 5654 5651 5648 5644 5640
5661 5657 5642 5629 5647 5646 5676 5654 5662 5658 5638 5627 5618 5610 5606 5602 5598 5593 5592 5589 5588 5587 5585 5582 5585 5589 5597 5603 5612 5620 5626 5635 5644 5651 5657 5660 5660 5658 5655 5654 5652 5650 5648 5649 5647 5643 5640 5636 5633
5653 5638 5634 5618 5629 5620 5644 5667 5646 5644 5615 5605 5600 5598 5589 5582 5574 5573 5570 5562 5558 5552 5553 5553 5557 5559 5562 5569 5578 5592 5599 5607 5619 5630 5640 5646 5649 5650 5649 5645 5642 5641 5639 5639 5638 5636 5631 5629 5626
5640 5638 5610 5606 5592 5599 5634 5631 5627 5612 5604 5599 5591 5581 5577 5574 5566 5564 5562 5550 5539 5531 5523 5521 5518 5522 5531 5536 5540 5556 5567 5575 5591 5606 5618 5627 5633 5635 5639 5638 5634 5630 5630 5630 5629 5626 5624 5621 5619
5620 5610 5606 5598 5585 5569 5571 5607 5615 5584 5574 5569 5568 5561 5543 5530 5529 5526 5520 5513 5507 5501 5500 5496 5492 5490 5495 5501 5509 5517 5530 5543 5559 5576 5591 5606 5613 5618 5624 5630 5625 5621 5622 5623 5621 5619 5616 5615 5612
5606 5595 5591 5567 5566 5551 5522 5579 5593 5571 5561 5551 5541 5532 5525 5513 5507 5495 5487 5488 5485 5484 5480 5479 5478 5478 5485 5487 5483 5488 5500 5514 5530 5548 5564 5578 5591 5598 5609 5619 5617 5613 5614 5615 5616 5615 5615 5611 5608